Vorticity
8 8 6 6 7 9 11 13 9 7 8 10 13 17 22 23 22 18 13 16 14 12 11 15 17 21 13 31 -2 -21 24 7 -17 33 32 18 19 11 5 5 -3 -1 1 9 10 -0 9 6 9 7 9 8 8 9
7 6 7 8 10 11 12 9 6 9 11 16 21 25 24 19 12 14 19 20 11 15 13 16 18 21 17 39 -15 -8 10 1 9 -14 21 12 11 3 15 26 13 7 7 4 -5 -2 11 10 9 9 9 8 8 12
6 5 7 8 12 10 7 6 9 13 19 23 24 14 12 14 17 22 23 16 14 17 14 12 14 20 24 35 17 -20 16 2 9 -2 20 -0 5 8 24 19 12 -2 3 -8 5 9 11 8 11 7 8 7 11 13
6 10 9 12 9 6 6 9 14 22 25 12 6 16 18 20 23 22 20 13 19 12 17 17 18 13 23 25 15 2 -4 7 6 2 18 12 13 27 18 14 18 2 7 12 18 8 15 9 9 7 5 13 10 9
11 9 11 9 6 6 8 16 20 25 7 14 22 17 27 26 20 19 18 18 17 9 12 11 16 18 21 17 25 -10 -0 7 1 23 4 22 -13 3 12 12 4 4 10 8 11 7 11 9 11 6 10 6 7 14
11 11 7 6 6 7 17 20 24 8 18 18 18 26 18 13 13 15 18 19 11 10 12 19 16 17 20 21 17 -9 -10 -5 9 -23 10 35 10 3 18 14 7 3 3 11 6 10 9 9 8 7 7 4 4 9
7 7 6 7 9 15 19 24 10 17 15 21 24 16 13 6 11 11 18 20 14 12 11 11 17 12 30 18 35 -16 10 25 -3 -1 -2 30 -8 24 13 9 4 6 7 8 4 10 7 10 6 6 4 6 11 11
8 8 8 6 14 16 25 11 15 15 24 22 15 11 11 12 12 14 17 18 16 7 8 15 18 17 37 1 9 9 9 1 17 26 5 7 20 17 16 9 7 7 6 15 4 11 9 8 6 5 6 11 11 11
7 7 7 14 17 24 13 12 15 28 21 14 9 9 18 16 12 11 17 17 12 6 8 15 14 14 22 22 -2 -2 -13 11 -19 11 -1 4 18 29 11 9 11 7 2 18 8 9 10 7 4 2 9 8 7 10
9 8 14 18 25 15 9 16 31 22 12 14 3 15 15 9 20 13 17 18 9 6 10 14 17 9 23 25 43 11 24 9 -17 -7 17 10 15 22 20 19 12 14 16 8 9 8 7 8 5 3 7 5 4 11
10 16 22 23 15 7 18 28 22 11 18 1 2 8 16 18 21 12 8 10 8 8 12 13 17 12 11 27 -13 11 0 10 11 1 5 8 18 3 16 11 9 8 19 3 6 8 12 6 5 5 5 3 4 10
17 26 18 15 8 21 26 20 22 5 12 0 1 11 13 21 17 8 11 13 3 6 9 10 12 16 -0 25 19 -1 5 4 20 13 2 12 25 9 13 17 13 9 10 9 6 9 12 7 7 6 3 2 5 9
24 15 12 9 24 23 18 10 22 7 14 2 -3 8 8 14 14 8 20 11 10 7 11 10 10 14 11 20 18 20 15 12 5 15 10 13 -11 11 3 19 21 14 11 8 7 8 11 10 6 5 4 3 4 9
13 7 19 29 23 16 16 23 16 19 -5 7 0 11 5 14 15 9 8 17 9 10 7 11 14 11 16 2 17 17 9 7 12 15 3 3 3 4 0 16 16 17 5 13 3 7 10 12 9 5 4 4 4 8
14 24 20 20 11 5 9 12 32 12 -3 7 1 -3 11 4 8 12 16 9 12 7 10 18 13 12 16 7 2 3 20 7 17 5 12 10 10 -6 -9 8 4 10 15 6 9 10 4 14 11 6 4 5 3 7
21 12 13 17 8 4 16 16 26 5 5 2 1 4 7 6 -3 31 10 22 16 21 14 19 16 18 12 12 9 4 16 17 1 6 8 23 -8 -5 2 -0 7 6 7 10 14 11 3 12 14 8 3 5 4 6
21 24 23 8 5 16 15 20 19 16 7 -6 1 11 -1 13 7 -10 20 20 6 26 22 16 15 14 7 8 6 11 19 30 21 5 3 -0 -2 2 11 4 8 3 10 11 8 15 9 10 16 9 3 7 4 5
42 24 15 17 16 25 19 9 12 16 19 1 7 6 5 -1 17 13 -5 11 12 10 19 23 20 14 9 2 6 18 17 7 33 41 -8 28 3 30 11 5 13 5 6 8 11 20 15 15 17 11 4 7 3 6
-2 -2 2 4 6 21 5 11 6 1 13 34 20 -3 20 2 0 20 10 7 11 13 20 12 20 11 9 4 2 12 16 15 18 20 18 8 18 24 15 12 11 4 6 10 16 16 16 19 15 9 7 7 4 5
5 10 18 15 8 27 -7 -2 15 12 12 14 26 28 -4 1 8 4 -8 29 10 4 15 7 22 16 7 5 3 6 10 23 17 24 32 14 19 25 17 13 11 6 10 22 12 22 18 19 17 14 10 7 4 6
12 24 24 25 22 8 -0 14 16 10 14 16 11 22 27 22 15 15 23 -1 19 6 7 15 10 9 8 9 6 6 5 7 16 15 16 18 1 10 26 14 4 9 -2 4 19 13 14 17 15 12 9 5 5 6
17 22 19 9 10 22 33 19 15 3 2 8 4 3 17 11 9 22 23 26 14 8 9 12 18 13 8 10 7 8 10 8 12 11 5 17 19 14 13 14 15 7 14 11 18 8 12 15 13 10 9 9 6 8
17 8 7 12 17 13 4 6 9 -8 12 5 9 11 11 18 17 12 17 16 11 12 12 10 12 14 16 10 13 16 12 17 12 14 7 14 15 8 10 14 4 7 6 15 20 9 10 12 13 12 11 10 8 9
24 12 8 7 19 -11 11 9 19 5 5 2 6 13 8 14 16 16 15 11 12 14 12 12 12 9 12 15 16 10 7 12 6 7 10 13 17 11 7 20 6 8 -0 26 11 9 7 10 11 11 10 8 9 9
23 12 14 8 -2 26 -3 -8 -6 19 2 8 2 2 6 27 21 19 13 13 11 14 12 11 13 10 13 14 12 13 15 12 3 -0 0 19 13 11 6 19 9 2 17 16 7 5 7 9 9 8 8 9 10 8
30 10 11 10 -2 11 8 -2 15 18 17 0 -1 8 13 19 10 24 10 12 12 12 13 5 12 12 11 11 12 9 9 1 16 14 12 19 10 11 15 13 9 7 15 10 10 8 8 10 10 9 8 8 7 6
28 19 8 15 5 2 -5 12 6 15 20 11 13 1 11 23 17 27 7 12 11 10 16 11 2 16 10 9 10 9 8 12 -0 5 3 13 13 15 11 12 13 11 10 6 9 10 6 9 8 7 6 6 6 7
14 -0 7 1 19 39 19 11 20 23 28 27 46 30 20 13 24 15 17 15 12 7 15 19 7 7 -2 -0 17 1 5 9 7 24 7 17 22 17 11 15 14 7 11 6 6 7 7 8 7 6 6 7 8 9
20 22 15 18 2 -9 -7 21 24 4 4 6 5 17 25 30 36 32 33 34 40 21 19 19 14 12 1 4 -19 37 34 32 3 20 -22 17 34 23 10 21 8 4 5 7 5 5 5 6 6 7 7 6 5 6
6 10 9 17 18 23 22 -22 -6 45 23 21 23 27 22 22 20 18 17 5 8 12 17 11 17 27 3 -3 39 46 56 43 12 15 18 43 27 19 19 22 17 7 4 6 5 5 4 5 5 3 4 5 7 6
14 19 7 17 25 21 36 29 25 23 13 16 36 19 12 -0 -6 9 25 31 12 13 18 18 26 22 45 16 9 20 19 19 11 2 15 -24 27 8 -1 3 7 5 5 7 9 10 7 7 7 8 8 8 7 6
13 13 16 18 18 19 19 18 20 17 8 17 18 9 -1 3 9 21 7 8 18 18 28 36 21 18 5 2 25 12 35 6 -14 18 10 39 18 11 10 9 8 9 9 10 10 8 9 12 9 7 7 5 5 6
6 14 24 21 25 20 8 5 5 7 14 17 18 34 31 11 4 14 13 28 17 10 20 19 18 13 11 19 2 12 37 22 18 24 16 17 12 13 9 7 6 8 5 2 2 -1 -6 -2 1 2 11 18 18 20
Height
5555 5557 5559 5560 5561 5562 5561 5561 5561 5560 5558 5557 5555 5553 5552 5551 5551 5552 5557 5555 5557 5563 5566 5568 5573 5580 5590 5600 5607 5616 5625 5629 5636 5641 5647 5654 5661 5664 5671 5679 5685 5691 5695 5699 5702 5706 5709 5713 5716 5719 5720 5721 5723 5722
5544 5546 5548 5549 5549 5550 5550 5549 5548 5547 5546 5544 5542 5540 5540 5541 5541 5542 5548 5547 5549 5552 5565 5561 5568 5576 5586 5596 5604 5611 5619 5625 5633 5640 5646 5651 5656 5662 5670 5674 5682 5687 5693 5698 5701 5704 5707 5710 5713 5716 5718 5719 5719 5720
5532 5535 5536 5537 5538 5538 5538 5537 5536 5535 5533 5531 5531 5531 5531 5532 5532 5534 5539 5539 5542 5548 5555 5557 5568 5572 5580 5589 5597 5607 5614 5621 5628 5635 5642 5647 5654 5661 5664 5671 5680 5683 5689 5694 5697 5701 5704 5708 5711 5714 5716 5716 5717 5718
5521 5522 5524 5526 5527 5526 5526 5526 5524 5524 5522 5522 5522 5522 5523 5523 5524 5526 5531 5533 5537 5545 5551 5558 5559 5566 5575 5583 5594 5602 5610 5618 5625 5631 5638 5644 5649 5653 5662 5667 5675 5681 5686 5690 5693 5698 5702 5706 5709 5712 5713 5715 5716 5718
5510 5512 5513 5515 5516 5516 5515 5514 5513 5512 5513 5513 5513 5514 5514 5516 5518 5521 5524 5528 5534 5541 5549 5550 5556 5564 5571 5580 5590 5598 5607 5614 5620 5628 5633 5639 5645 5652 5658 5665 5671 5677 5681 5686 5690 5695 5700 5704 5707 5709 5711 5713 5714 5715
5498 5501 5502 5503 5505 5505 5504 5504 5504 5504 5504 5505 5506 5507 5510 5512 5515 5516 5518 5523 5530 5536 5543 5546 5555 5561 5568 5576 5586 5595 5603 5611 5617 5624 5630 5634 5643 5649 5653 5660 5668 5672 5676 5681 5687 5693 5698 5701 5705 5708 5709 5711 5713 5714
5487 5489 5491 5493 5493 5494 5493 5494 5495 5496 5497 5499 5501 5503 5506 5509 5511 5514 5520 5528 5530 5534 5541 5547 5552 5558 5566 5574 5585 5595 5603 5609 5615 5622 5627 5632 5639 5642 5649 5655 5662 5668 5673 5678 5687 5691 5695 5699 5703 5705 5708 5710 5711 5712
5475 5478 5480 5481 5482 5483 5484 5486 5488 5489 5491 5493 5496 5499 5502 5505 5507 5510 5516 5521 5526 5531 5538 5542 5549 5556 5563 5572 5581 5592 5599 5606 5614 5620 5623 5628 5631 5636 5643 5652 5658 5662 5668 5675 5683 5688 5692 5697 5700 5703 5705 5707 5709 5710
5463 5466 5467 5470 5471 5473 5476 5478 5480 5483 5486 5490 5493 5495 5497 5499 5503 5511 5514 5518 5524 5530 5534 5540 5548 5555 5562 5570 5577 5587 5594 5603 5609 5613 5620 5624 5628 5631 5642 5648 5651 5658 5667 5673 5679 5683 5689 5694 5697 5701 5703 5705 5707 5707
5451 5454 5456 5459 5461 5465 5467 5470 5474 5478 5483 5486 5488 5491 5494 5498 5503 5506 5512 5515 5518 5522 5530 5537 5545 5553 5560 5568 5578 5589 5592 5598 5603 5612 5615 5617 5624 5632 5641 5646 5651 5658 5662 5668 5674 5681 5687 5691 5694 5698 5701 5703 5705 5705
5439 5442 5445 5448 5452 5456 5459 5463 5468 5474 5478 5481 5484 5488 5492 5494 5499 5501 5505 5509 5514 5520 5527 5538 5545 5551 5558 5566 5574 5581 5586 5593 5600 5609 5611 5615 5623 5632 5640 5644 5649 5655 5660 5667 5672 5677 5683 5686 5690 5694 5698 5701 5703 5703
5426 5430 5434 5439 5444 5447 5452 5457 5463 5468 5474 5479 5483 5486 5489 5490 5493 5496 5499 5505 5509 5518 5526 5534 5544 5550 5556 5562 5569 5575 5582 5589 5597 5604 5607 5611 5626 5633 5637 5642 5646 5652 5657 5663 5668 5672 5677 5681 5686 5691 5694 5698 5700 5701
5415 5420 5425 5430 5434 5439 5445 5452 5458 5464 5471 5476 5480 5481 5484 5487 5489 5492 5496 5504 5510 5518 5527 5533 5540 5546 5553 5560 5565 5571 5577 5583 5590 5596 5602 5613 5624 5630 5636 5639 5643 5648 5653 5657 5663 5668 5673 5678 5683 5687 5691 5694 5697 5698
5405 5411 5416 5421 5427 5433 5439 5446 5453 5460 5467 5471 5474 5475 5479 5482 5487 5494 5501 5508 5514 5520 5527 5533 5537 5540 5548 5556 5561 5566 5571 5577 5582 5591 5601 5613 5622 5627 5632 5636 5639 5643 5649 5653 5658 5663 5669 5674 5679 5683 5686 5690 5693 5695
5396 5402 5408 5414 5421 5428 5434 5441 5448 5453 5459 5464 5467 5469 5475 5481 5486 5492 5498 5504 5510 5519 5524 5530 5533 5538 5545 5549 5554 5561 5566 5569 5575 5588 5598 5607 5615 5622 5628 5631 5634 5636 5642 5648 5652 5658 5664 5669 5674 5678 5681 5686 5689 5691
5387 5394 5403 5409 5416 5423 5429 5435 5442 5448 5451 5456 5460 5465 5472 5478 5485 5490 5495 5501 5509 5514 5518 5522 5526 5532 5538 5543 5551 5556 5561 5568 5574 5582 5590 5600 5607 5614 5620 5624 5627 5630 5636 5642 5646 5652 5657 5663 5668 5672 5676 5681 5685 5686
5380 5390 5398 5405 5411 5417 5422 5427 5433 5438 5443 5445 5453 5460 5468 5474 5481 5488 5492 5497 5504 5506 5511 5515 5520 5526 5533 5539 5545 5550 5557 5564 5567 5576 5583 5593 5600 5605 5611 5616 5621 5625 5630 5635 5641 5646 5651 5657 5661 5666 5672 5676 5679 5681
5379 5386 5393 5399 5404 5410 5414 5419 5424 5429 5433 5441 5448 5456 5463 5470 5478 5484 5488 5494 5499 5502 5505 5511 5518 5523 5529 5536 5542 5547 5552 5559 5563 5571 5579 5586 5593 5598 5602 5607 5613 5618 5623 5629 5635 5640 5645 5651 5655 5661 5665 5670 5673 5676
5377 5383 5389 5394 5399 5402 5407 5412 5419 5425 5433 5440 5446 5452 5457 5465 5473 5479 5483 5487 5494 5498 5501 5506 5510 5515 5525 5531 5536 5543 5550 5555 5562 5566 5574 5581 5586 5591 5596 5602 5607 5613 5619 5624 5629 5635 5639 5643 5648 5653 5659 5663 5668 5670
5371 5378 5383 5389 5393 5397 5402 5409 5416 5420 5425 5433 5439 5444 5453 5460 5468 5474 5478 5482 5489 5491 5494 5498 5503 5512 5520 5527 5532 5537 5543 5549 5558 5565 5570 5575 5581 5585 5589 5595 5601 5606 5612 5619 5625 5629 5633 5637 5642 5648 5654 5658 5661 5665
5364 5371 5376 5381 5385 5392 5398 5403 5410 5417 5424 5429 5436 5442 5447 5454 5459 5465 5471 5477 5481 5483 5487 5493 5499 5508 5514 5520 5526 5531 5538 5546 5552 5559 5563 5569 5573 5577 5581 5587 5594 5601 5607 5614 5618 5622 5626 5631 5636 5642 5646 5651 5654 5657
5359 5364 5368 5373 5380 5385 5393 5401 5410 5415 5420 5427 5432 5437 5442 5447 5453 5460 5466 5467 5473 5477 5483 5491 5498 5504 5508 5514 5520 5526 5534 5540 5547 5552 5557 5563 5566 5571 5575 5581 5588 5595 5602 5607 5611 5616 5620 5624 5629 5634 5639 5643 5647 5651
5354 5360 5366 5370 5375 5381 5392 5397 5404 5411 5416 5422 5427 5431 5435 5441 5448 5453 5454 5462 5467 5473 5480 5486 5493 5498 5503 5509 5514 5520 5527 5534 5540 5546 5552 5556 5562 5565 5570 5576 5583 5590 5596 5600 5605 5610 5614 5619 5623 5628 5633 5637 5641 5644
5352 5357 5361 5366 5371 5377 5385 5391 5399 5405 5411 5416 5420 5426 5431 5436 5442 5442 5448 5455 5462 5467 5473 5480 5486 5492 5499 5505 5510 5517 5523 5527 5534 5541 5547 5550 5556 5560 5565 5570 5578 5585 5589 5594 5600 5603 5608 5613 5618 5622 5626 5630 5634 5637
5348 5352 5359 5363 5370 5374 5380 5387 5392 5399 5406 5412 5416 5421 5426 5431 5434 5434 5442 5450 5455 5461 5468 5474 5479 5486 5492 5499 5505 5511 5514 5521 5528 5534 5539 5543 5548 5553 5559 5565 5572 5578 5583 5588 5593 5597 5602 5607 5612 5615 5619 5623 5627 5630
5343 5347 5354 5358 5365 5373 5379 5385 5390 5395 5401 5406 5411 5416 5420 5424 5425 5425 5435 5443 5449 5455 5462 5469 5475 5481 5485 5491 5497 5503 5509 5514 5520 5526 5530 5535 5540 5546 5552 5559 5566 5572 5577 5582 5587 5591 5595 5600 5605 5609 5613 5616 5619 5622
5345 5352 5359 5363 5367 5374 5379 5383 5389 5392 5396 5400 5405 5409 5411 5411 5414 5420 5429 5437 5443 5449 5457 5464 5470 5476 5481 5486 5490 5495 5500 5507 5514 5519 5524 5529 5533 5538 5545 5552 5559 5565 5570 5574 5579 5585 5590 5594 5598 5601 5605 5608 5611 5614
5352 5357 5362 5366 5369 5373 5377 5381 5384 5386 5389 5393 5397 5398 5399 5403 5409 5418 5425 5432 5438 5444 5450 5457 5462 5466 5472 5478 5483 5487 5491 5499 5505 5511 5516 5520 5527 5533 5539 5545 5552 5557 5564 5568 5571 5576 5582 5588 5591 5594 5597 5600 5603 5605
5353 5357 5360 5363 5368 5371 5374 5377 5380 5383 5386 5388 5389 5391 5394 5401 5409 5416 5422 5426 5432 5438 5443 5449 5454 5458 5462 5468 5472 5474 5479 5487 5494 5502 5509 5513 5521 5528 5534 5539 5545 5551 5558 5564 5566 5570 5576 5580 5583 5586 5589 5591 5593 5595
5352 5355 5359 5362 5365 5369 5373 5375 5376 5378 5379 5381 5385 5389 5393 5398 5404 5411 5417 5422 5427 5432 5436 5440 5444 5449 5453 5455 5458 5460 5464 5473 5483 5492 5499 5507 5513 5518 5523 5530 5536 5543 5549 5554 5558 5562 5566 5570 5574 5576 5579 5581 5583 5584
5354 5357 5361 5364 5366 5367 5368 5368 5370 5372 5375 5379 5383 5387 5391 5396 5401 5407 5411 5416 5421 5425 5429 5433 5436 5441 5444 5449 5452 5456 5461 5468 5477 5485 5492 5497 5505 5510 5516 5522 5529 5535 5541 5546 5551 5556 5559 5562 5564 5566 5568 5570 5572 5573
5353 5355 5358 5360 5362 5363 5364 5366 5368 5370 5372 5376 5380 5383 5386 5390 5394 5399 5404 5409 5412 5415 5419 5425 5429 5434 5440 5446 5450 5455 5459 5465 5472 5478 5484 5491 5497 5502 5510 5517 5524 5530 5535 5539 5543 5546 5548 5551 5554 5556 5558 5560 5561 5562
5354 5356 5358 5360 5361 5363 5365 5367 5368 5370 5372 5374 5376 5378 5382 5387 5392 5397 5401 5405 5408 5412 5417 5420 5425 5431 5436 5442 5446 5450 5454 5460 5466 5473 5480 5488 5494 5499 5505 5511 5517 5522 5527 5530 5533 5536 5539 5542 5545 5547 5549 5551 5552 5553